Location: Brahman Valley
(40.6513°N, 111.8855°W)
Time: 02:52:49
(UTC+00:00)

Transit 2A Rocket - All Passes

Search period start: 12 May 2021 00:00
Search period end: 22 May 2021 00:00
Orbit: 594 x 909 km, 66.7° (Epoch: 11 May)

Date Brightness Start Highest point End Pass type
(mag) Time Alt. Az. Time Alt. Az. Time Alt. Az.
12 May - 00:52:03 10° N 00:55:04 17° NE 00:58:13 10° E daylight
12 May - 02:33:17 10° NW 02:38:00 70° WSW 02:43:08 10° SSE daylight
12 May - 17:08:04 10° SSW 17:12:29 84° WNW 17:16:49 10° NNE daylight
12 May - 18:54:36 10° NW 18:55:42 11° NW 18:56:48 10° NNW daylight
13 May - 00:11:22 10° NNE 00:12:03 10° NE 00:12:45 10° NE daylight
13 May - 01:50:42 10° NNW 01:55:24 66° ENE 02:00:31 10° SE daylight
13 May - 03:34:50 10° WNW 03:37:31 15° WSW 03:40:17 10° SW visible
13 May - 16:25:41 10° S 16:29:56 49° ESE 16:34:06 10° NE daylight
13 May - 18:09:43 10° W 18:12:43 18° NW 18:15:41 10° N daylight
14 May - 01:08:19 10° NNW 01:12:41 37° NE 01:17:25 10° ESE daylight
14 May - 02:51:05 10° NW 02:55:06 26° WSW 02:59:24 10° SSW daylight
14 May - 15:43:51 10° SSE 15:47:28 25° ESE 15:51:01 10° NE daylight
14 May - 17:26:00 10° WSW 17:29:51 30° NW 17:33:41 10° N daylight
15 May - 00:26:10 10° N 00:29:54 23° NE 00:33:51 10° ESE daylight
15 May - 02:08:01 10° NW 02:12:36 47° WSW 02:17:36 10° S daylight
15 May - 15:03:02 10° SE 15:05:07 13° ESE 15:07:10 10° ENE daylight
15 May - 16:42:50 10° SW 16:47:08 55° WNW 16:51:22 10° NNE daylight
15 May - 23:44:25 10° NNE 23:46:59 14° NE 23:49:37 10° ENE daylight
16 May - 01:25:16 10° NNW 01:30:03 86° WSW 01:35:16 10° SSE daylight
16 May - 16:00:08 10° SSW 16:04:31 77° ESE 16:08:49 10° NNE daylight
16 May - 17:45:33 10° WNW 17:47:34 13° NW 17:49:36 10° NNW daylight
17 May - 00:42:45 10° NNW 00:47:24 54° ENE 00:52:28 10° SE daylight
17 May - 02:26:17 10° WNW 02:29:38 18° WSW 02:33:09 10° SSW daylight
17 May - 15:17:55 10° S 15:22:00 38° ESE 15:26:00 10° NE daylight
17 May - 17:01:17 10° W 17:04:38 21° NW 17:07:58 10° N daylight
18 May - 00:00:27 10° N 00:04:41 31° NE 00:09:14 10° ESE daylight
18 May - 01:42:52 10° NW 01:47:11 33° WSW 01:51:51 10° S daylight
18 May - 14:36:21 10° SSE 14:39:34 20° ESE 14:42:44 10° ENE daylight
18 May - 16:17:46 10° WSW 16:21:49 37° NW 16:25:50 10° NNE daylight
18 May - 23:18:24 10° N 23:21:51 19° NE 23:25:27 10° E daylight
19 May - 00:59:57 10° NW 01:04:40 59° WSW 01:09:50 10° SSE daylight
19 May - 13:56:55 10° ESE 13:57:14 10° ESE 13:57:34 10° E daylight
19 May - 15:34:46 10° SW 15:39:08 70° WNW 15:43:26 10° NNE daylight
19 May - 22:36:57 10° NNE 22:38:52 12° NE 22:40:50 10° ENE daylight
20 May - 00:17:17 10° NNW 00:22:05 78° ENE 00:27:20 10° SSE daylight
20 May - 02:02:04 10° W 02:04:07 12° WSW 02:06:15 10° SW daylight
20 May - 14:52:15 10° SSW 14:56:33 60° ESE 15:00:47 10° NE daylight
20 May - 16:36:51 10° W 16:39:27 15° NW 16:42:04 10° N daylight
20 May - 23:34:50 10° NNW 23:39:25 44° NE 23:44:23 10° SE daylight
21 May - 01:17:55 10° WNW 01:21:44 23° WSW 01:25:49 10° SSW daylight
21 May - 14:10:14 10° S 14:14:04 30° ESE 14:17:50 10° NE daylight
21 May - 15:52:55 10° WSW 15:56:33 26° NW 16:00:12 10° N daylight
21 May - 22:52:36 10° N 22:56:39 27° NE 23:00:57 10° ESE daylight
